| time (UTC) | temp C | wind direction | speed KPH | gust KPH | rain 1hr cm | rain 24hr cm | rain mn cm | humidity % | barometer mb |
| 20260505034508 | 17 | 138 | 3.2 | 6.4 | 0.00 | 0.00 | 0.00 | 55 | 1012.9 |
| 20260505033012 | 18 | 147 | 3.2 | 9.7 | 0.00 | 0.00 | 0.00 | 56 | 1012.8 |
| 20260505031506 | 18 | 170 | 1.6 | 8.0 | 0.00 | 0.00 | 0.00 | 56 | 1013.0 |
| 20260505030013 | 18 | 182 | 1.6 | 8.0 | 0.00 | 0.00 | 0.00 | 55 | 1013.0 |
| 20260505024506 | 18 | 178 | 1.6 | 8.0 | 0.00 | 0.00 | 0.00 | 56 | 1013.0 |
| 20260505023005 | 18 | 180 | 1.6 | 8.0 | 0.00 | 0.00 | 0.00 | 55 | 1013.1 |
| 20260505021505 | 18 | 154 | 3.2 | 8.0 | 0.00 | 0.00 | 0.00 | 55 | 1013.1 |
| 20260505020008 | 19 | 138 | 3.2 | 8.0 | 0.00 | 0.00 | 0.00 | 55 | 1013.2 |
| 20260505014504 | 19 | 164 | 3.2 | 6.4 | 0.00 | 0.00 | 0.00 | 54 | 1013.0 |
| 20260505013004 | 20 | 180 | 3.2 | 8.0 | 0.00 | 0.00 | 0.00 | 54 | 1012.7 |
| 20260505011502 | 20 | 149 | 1.6 | 8.0 | 0.00 | 0.00 | 0.00 | 54 | 1012.7 |
| 20260505010005 | 20 | 162 | 3.2 | 9.7 | 0.00 | 0.00 | 0.00 | 54 | 1012.4 |
| 20260505004502 | 20 | 158 | 3.2 | 11.3 | 0.00 | 0.00 | 0.00 | 54 | 1012.3 |
| 20260505003001 | 21 | 157 | 1.6 | 8.0 | 0.00 | 0.00 | 0.00 | 52 | 1012.3 |
| 20260505001601 | 21 | 170 | 3.2 | 6.4 | 0.00 | 0.00 | 0.00 | 50 | 1012.3 |
| 20260505000108 | 22 | 175 | 0.0 | 4.8 | 0.00 | 0.00 | 0.00 | 49 | 1012.2 |
| 20260504234612 | 22 | 175 | 1.6 | 4.8 | 0.00 | 0.00 | 0.00 | 47 | 1012.1 |
| 20260504233059 | 23 | 183 | 1.6 | 9.7 | 0.00 | 0.00 | 0.00 | 46 | 1012.1 |
| 20260504231559 | 23 | 203 | 4.8 | 11.3 | 0.00 | 0.00 | 0.00 | 45 | 1012.2 |
| 20260504230057 | 23 | 227 | 4.8 | 11.3 | 0.00 | 0.00 | 0.00 | 45 | 1012.1 |
| 20260504224557 | 23 | 248 | 9.7 | 19.3 | 0.00 | 0.00 | 0.00 | 44 | 1012.2 |
| 20260504223056 | 23 | 225 | 11.3 | 20.9 | 0.00 | 0.00 | 0.00 | 43 | 1012.2 |
| 20260504221553 | 23 | 223 | 6.4 | 19.3 | 0.00 | 0.00 | 0.00 | 45 | 1012.4 |
| 20260504220101 | 23 | 217 | 9.7 | 17.7 | 0.00 | 0.00 | 0.00 | 44 | 1012.6 |
| 20260504214556 | 23 | 211 | 9.7 | 24.1 | 0.00 | 0.00 | 0.00 | 44 | 1012.6 |
| 20260504213108 | 23 | 271 | 9.7 | 22.5 | 0.00 | 0.00 | 0.00 | 43 | 1012.4 |
| 20260504211551 | 22 | 186 | 12.9 | 24.1 | 0.00 | 0.00 | 0.00 | 44 | 1012.3 |
| 20260504210050 | 22 | 248 | 8.0 | 24.1 | 0.00 | 0.00 | 0.00 | 45 | 1012.4 |
| 20260504204559 | 22 | 252 | 8.0 | 17.7 | 0.00 | 0.00 | 0.00 | 44 | 1012.3 |
| 20260504203049 | 22 | 167 | 14.5 | 30.6 | 0.00 | 0.00 | 0.00 | 43 | 1012.4 |
| 20260504201547 | 23 | 248 | 12.9 | 25.7 | 0.00 | 0.00 | 0.00 | 43 | 1012.6 |
| 20260504200046 | 23 | 243 | 17.7 | 30.6 | 0.00 | 0.00 | 0.00 | 41 | 1012.8 |
| 20260504194544 | 23 | 197 | 16.1 | 27.4 | 0.00 | 0.00 | 0.00 | 41 | 1012.9 |
| 20260504193058 | 22 | 224 | 11.3 | 22.5 | 0.00 | 0.00 | 0.00 | 42 | 1013.0 |
| 20260504191542 | 22 | 216 | 12.9 | 24.1 | 0.00 | 0.00 | 0.00 | 41 | 1013.2 |
| 20260504190042 | 23 | 250 | 8.0 | 20.9 | 0.00 | 0.00 | 0.00 | 40 | 1013.4 |
| 20260504184542 | 22 | 321 | 4.8 | 17.7 | 0.00 | 0.00 | 0.00 | 41 | 1013.5 |
| 20260504183044 | 22 | 185 | 6.4 | 30.6 | 0.00 | 0.00 | 0.00 | 41 | 1013.7 |
| 20260504181536 | 22 | 210 | 12.9 | 25.7 | 0.00 | 0.00 | 0.00 | 39 | 1014.1 |
| 20260504180034 | 22 | 213 | 11.3 | 25.7 | 0.00 | 0.00 | 0.00 | 40 | 1014.3 |
| 20260504174530 | 22 | 260 | 11.3 | 22.5 | 0.00 | 0.00 | 0.00 | 40 | 1014.5 |
| 20260504173031 | 22 | 240 | 8.0 | 19.3 | 0.00 | 0.00 | 0.00 | 41 | 1014.5 |
| 20260504171526 | 22 | 215 | 4.8 | 16.1 | 0.00 | 0.00 | 0.00 | 41 | 1014.6 |
| 20260504100109 | 9 | 167 | 1.6 | 4.8 | 0.00 | 0.00 | 0.00 | 64 | 1016.7 |
| 20260504081543 | 11 | 202 | 0.0 | 3.2 | 0.00 | 0.00 | 0.00 | 54 | 1016.8 |
| 20260504044533 | 10 | 144 | 4.8 | 11.3 | 0.00 | 0.00 | 0.00 | 53 | 1017.1 |
| 20260504043034 | 10 | 153 | 4.8 | 8.0 | 0.00 | 0.00 | 0.00 | 52 | 1017.1 |
| 20260504041521 | 10 | 141 | 4.8 | 11.3 | 0.00 | 0.00 | 0.00 | 51 | 1017.0 |
| 20260504040022 | 11 | 145 | 4.8 | 8.0 | 0.00 | 0.00 | 0.00 | 50 | 1017.1 |